Location: Limoges
(45.8500°N, 1.2500°E)
Time: 03:01:54
(UTC+02:00)

ISS - Pass Details

Date: 26 September 2021
Orbit: 417 x 423 km, 51.6° (Epoch: 21 October)

Event Time Altitude Azimuth Distance (km) Brightness Sun altitude
Rises 22:32:29 0° 298° (WNW) 2,368 1.3 -28.8°
Reaches altitude 10° 22:34:38 10° 303° (WNW) 1,503 0.0 -29.1°
Enters shadow 22:35:32 17° 307° (NW) 1,151 -0.8 -29.3°
